Dewpoint
65 68 69 70 69 67 67 66 66 65 65 65 64 64 64 62 58 59 66 66 68 69 68 68 68 67 67 66 65 65 63 64 63
65 68 68 69 68 66 65 65 65 64 66 65 64 63 61 56 56 57 61 65 68 67 67 67 67 66 66 65 63 62 62 61 63
66 68 68 67 65 64 64 64 64 64 65 64 63 63 61 58 57 58 59 67 66 66 65 67 66 65 65 64 62 62 64 64 61
65 67 67 65 64 64 63 63 64 63 64 64 64 64 62 57 59 58 59 65 63 64 64 66 66 64 63 62 63 62 62 61 61
64 63 65 67 66 64 64 64 63 63 65 65 64 62 60 56 59 59 60 64 61 62 65 65 64 62 62 63 62 61 62 61 61
57 61 65 67 66 65 63 63 63 64 64 64 63 60 56 57 59 61 64 62 62 64 65 64 63 62 63 60 60 61 59 62 63
57 61 65 66 65 64 63 63 61 59 59 61 60 57 57 59 62 62 65 63 64 66 65 64 63 61 62 59 59 61 62 64 62
58 63 64 63 61 61 61 57 55 56 58 58 57 56 57 60 62 64 65 67 67 66 64 63 63 61 60 59 62 63 63 61 60
58 60 58 59 60 58 56 54 53 56 57 57 57 56 57 60 62 63 65 66 65 65 64 63 61 60 60 61 62 62 61 60 59
58 59 56 57 58 57 54 53 52 53 57 58 58 57 57 58 60 60 63 65 65 64 63 62 60 60 60 63 61 61 59 58 58
56 57 55 56 56 56 54 54 51 55 57 58 59 57 58 58 58 61 62 63 64 63 60 60 60 60 61 62 61 59 57 56 55
56 55 54 55 55 55 54 52 53 55 56 58 59 58 57 57 59 60 61 62 62 63 60 59 59 62 61 61 59 57 56 55 54
56 55 54 54 54 55 53 52 53 53 55 56 57 56 56 57 58 60 60 61 60 61 62 62 61 60 59 62 59 57 55 53 54
56 56 54 54 53 53 52 51 52 52 53 55 56 55 55 56 59 59 60 60 59 58 61 62 62 61 63 61 59 57 53 54 54
56 55 54 54 53 52 51 51 50 51 53 54 54 54 55 56 58 58 61 59 58 57 59 60 58 62 62 60 58 56 53 53 53
56 55 54 54 53 52 51 49 50 50 50 51 50 49 53 56 57 58 58 59 58 58 59 58 57 61 62 60 58 56 55 53 53
55 55 54 54 53 51 50 50 48 48 48 49 49 49 50 51 53 56 58 57 57 57 58 57 56 58 58 58 59 56 55 54 53
55 55 55 54 54 52 51 50 49 50 48 45 47 44 47 46 47 54 55 55 56 55 56 55 55 57 57 58 57 57 56 55 54
54 54 54 54 54 53 51 50 49 50 48 45 41 43 44 45 45 47 52 54 54 55 55 54 54 55 56 56 55 56 57 55 54
54 54 53 54 54 53 52 49 48 50 49 46 42 40 40 42 44 46 49 51 53 53 55 54 53 54 55 55 55 56 57 55 55
Lifted_Index
3 3 2 2 2 3 3 4 4 4 4 4 5 5 6 7 5 4 2 2 1 1 1 1 1 1 2 2 2 3 3 3 3
3 3 2 2 3 3 4 4 4 4 4 4 5 6 7 7 6 4 3 2 2 1 1 1 1 2 2 3 3 3 3 3 3
4 3 3 3 4 4 5 5 5 5 4 5 5 7 7 8 7 6 4 3 2 2 2 2 2 2 3 3 3 3 3 3 3
5 4 4 4 4 5 5 5 5 5 5 5 6 7 7 8 7 6 5 4 4 3 2 2 2 3 4 4 4 3 3 3 4
6 6 5 4 4 5 5 5 5 5 5 5 6 7 7 7 7 6 5 5 4 3 2 2 3 4 4 4 4 4 4 3 3
7 6 5 4 4 5 6 6 6 6 6 6 7 7 7 7 6 5 5 4 4 3 2 3 3 4 4 4 4 4 3 3 2
7 6 4 4 4 5 6 6 6 6 6 7 7 7 7 6 5 4 4 3 3 2 2 3 3 4 4 5 4 3 3 3 3
7 6 4 4 5 6 7 7 7 7 7 7 7 7 7 5 4 3 3 2 2 2 2 3 3 4 4 4 3 3 3 3 4
7 6 5 5 6 7 8 8 7 7 7 7 8 7 6 5 4 3 2 1 1 2 2 3 3 4 4 3 3 3 3 4 4
7 7 6 7 7 8 8 8 7 7 7 7 7 7 6 5 4 3 2 2 2 2 3 3 3 4 3 3 3 3 4 5 5
7 7 7 8 8 8 8 8 7 7 7 7 7 7 6 5 4 3 2 2 2 3 3 4 4 3 3 3 3 4 5 6 6
7 7 8 8 8 8 8 8 7 7 6 6 6 6 6 5 4 3 3 2 3 3 4 4 3 3 3 3 4 5 6 7 7
7 7 8 8 8 9 8 7 7 7 6 6 6 6 6 5 4 3 3 3 3 3 3 3 3 3 3 3 4 6 7 8 8
7 7 8 8 9 9 8 7 7 7 6 6 6 5 5 5 4 4 3 3 3 4 4 3 3 3 3 3 5 6 7 8 8
7 7 8 8 9 9 8 7 7 6 6 6 6 6 5 4 4 3 3 3 3 4 4 3 3 3 3 3 5 6 7 8 8
7 7 8 8 9 9 8 7 7 6 6 6 6 6 5 5 4 3 3 3 3 4 4 4 4 3 3 3 4 6 7 7 8
7 7 7 8 9 9 8 7 7 7 6 6 7 7 6 5 4 3 3 3 3 3 4 4 4 3 3 4 4 5 6 7 7
6 7 7 8 8 8 8 7 7 7 7 7 7 7 7 6 5 4 3 3 3 3 3 3 4 4 4 4 5 5 6 7 7
6 6 6 7 7 7 7 7 7 7 7 7 7 8 8 7 6 5 4 3 3 3 3 3 4 4 4 4 5 6 6 6 7
5 5 6 6 7 7 7 7 7 7 7 7 8 8 8 7 6 6 5 4 3 3 3 3 4 4 4 5 5 6 6 6 6